Regional Weather Roundup
Issued by NWS

Home | Current Version | Previous Version | Text Only | Print | Product List | Glossary Off
Versions: 1 2 3 4 5 6 7 8 9 10 11 12 13 14 15 16 17 18 19 20 21 22 23 24 25 26 27 28 29 30 31 32 33 34 35 36 37 38 39 40 41 42 43 44 45 46 47 48 49 50

000
ASUS43 KLOT 261809
RWRIL

ILLINOIS REGIONAL WEATHER ROUNDUP
NATIONAL WEATHER SERVICE CHICAGO/ROMEOVILLE IL
100 PM CDT MON JUN 26 2017

NOTE: "FAIR" INDICATES FEW OR NO CLOUDS BELOW 12,000 FEET WITH NO
SIGNIFICANT WEATHER AND/OR OBSTRUCTIONS TO VISIBILITY.

* THESE STATIONS ARE NOT UNDER NWS QUALITY CONTROL. THEY ALSO MAY NOT
  REPORT WEATHER SUCH AS PRECIPITATION OR FOG.

ILZ001-002-007-009-015-016-024-261900-
NORTHWEST ILLINOIS

CITY           SKY/WX    TMP DP  RH WIND       PRES   REMARKS
MOLINE         PTSUNNY   70  53  54 W14       30.14F
6HR MIN TEMP:  56; 6HR MAX TEMP:  72; 6HR PCP: TRACE;

STERLING*      MOSUNNY   69  49  48 NW17      30.11F
SAVANNA*       PTSUNNY   71  47  42 NW12      30.12F
$$

ILZ003-004-008-010-011-017-018-261900-
NORTH CENTRAL ILLINOIS

CITY           SKY/WX    TMP DP  RH WIND       PRES   REMARKS
ROCKFORD       PTSUNNY   70  44  39 NW18G28   30.10F
6HR MIN TEMP:  56; 6HR MAX TEMP:  71;

FREEPORT*      PTSUNNY   65  43  44 NW13G28   30.12F
ROCHELLE*      PTSUNNY   69  46  43 NW18G24   30.10F
DE KALB*       PTSUNNY   68  45  43 W16G26    30.10S
PERU*          MOSUNNY   70  51  51 W17G25    30.11F
$$

ILZ005-006-012>014-019>023-261900-
NORTHEAST ILLINOIS

CITY           SKY/WX    TMP DP  RH WIND       PRES   REMARKS
CHICAGO-OHARE  PTSUNNY   70  43  37 NW18G24   30.06F
6HR MIN TEMP:  58; 6HR MAX TEMP:  73;

CHICAGO-MIDWAY PTSUNNY   69  45  41 NW13      30.06F
6HR MIN TEMP:  59; 6HR MAX TEMP:  72;

AURORA         PTSUNNY   71  47  42 W18G24    30.09F
6HR MIN TEMP:  52; 6HR MAX TEMP:  72;

LANSING*       PTSUNNY   69  43  39 W12G22    30.08F
JOLIET*        MOSUNNY   72  48  42 NW9       30.09F
WAUKEGAN       MOSUNNY   67  44  43 W9G21     30.05F
6HR MIN TEMP:  56; 6HR MAX TEMP:  69;

DUPAGE AIRPORT MOSUNNY   71  46  40 W18G26    30.07F
6HR MIN TEMP:  55; 6HR MAX TEMP:  71;

WHEELING       PTSUNNY   69  46  43 NW14G25   30.08F
6HR MIN TEMP:  58; 6HR MAX TEMP:  71;

MORRIS*        PTSUNNY   72  46  39 W21       30.08F
ROMEOVILLE*    PTSUNNY   74  42  32 W22G28    30.08F
NORTHERLY ISL    N/A     71  41  33 W5          N/A
$$

LMZ740>746-261900-
SOUTHERN LAKE MICHIGAN

STATION/POSITION SKY/WX   TEMP    WIND        PRES    VSBY  WAVE
                          AIR SEA DIR/SP/G                  HT/PER
                          (F)     (DEG/KT/KT) (MB)    (MI)  (FT/S)
SOUTHERN BUOY              61 61  260/ 10/ 10 1017.8F         2/ 4
WILMETTE HARBOR            66 63  290/ 16/ 23   N/A           2/ 3
HARRISON CRIB              68     290/ 18/ 26   N/A
BURNHAM HARBOR             70                   N/A
CALUMET HARBOR             71     240/  5/ 16 1017.6F
BURNS HARBOR               66     290/  7/ 11 1019.0F
MICHIGAN CITY              66     280/  7/  8   N/A
MICHIGAN CITY 6N           65 66  340/  6/  8   N/A           2/ 4
ST. JOSEPH                 65 69  260/ 10/ 12 1018.3          3/ 4
$$

ILZ025>027-034>036-040-047-049-050-058-095>099-261900-
WEST-CENTRAL ILLINOIS

CITY           SKY/WX    TMP DP  RH WIND       PRES   REMARKS
QUINCY         CLOUDY    64  53  67 SW6       30.22F
GALESBURG*     PTSUNNY   68  54  60 W14G20    30.17F
MACOMB*        PTSUNNY   64  54  70 W9        30.21F
JACKSONVILLE*  CLOUDY    64  51  60 W12G17    30.22F
PITTSFIELD*    LGT RAIN  65  52  61 NW9       30.25S
$$

ILZ028>032-037-038-041>044-048-051>054-059>061-261900-
CENTRAL ILLINOIS

CITY           SKY/WX    TMP DP  RH WIND       PRES   REMARKS
PONTIAC        CLOUDY    70  48  45 W22G30    30.14S
BLOOMINGTON    CLOUDY    66  49  54 W21       30.17F
DECATUR        PTSUNNY   67  47  48 W15G26    30.20F
PEORIA         CLOUDY    69  51  52 W13G21    30.17F
6HR MIN TEMP:  56; 6HR MAX TEMP:  69;

LACON*         PTSUNNY   69  50  51 W13       30.13F
LINCOLN*       CLOUDY    65  52  62 W5        30.20S
SPRINGFIELD    LGT RAIN  62  57  83 NW7       30.22F
6HR MIN TEMP:  56; 6HR MAX TEMP:  74; 6HR PCP:  0.02;

TAYLORVILLE    CLOUDY    65  49  55 NW15      30.23S
6HR MIN TEMP:  55; 6HR MAX TEMP:  74;

$$

ILZ033-039-045-046-055>057-062-063-261900-
EAST-CENTRAL ILLINOIS

CITY           SKY/WX    TMP DP  RH WIND       PRES   REMARKS
CHAMPAIGN      CLOUDY    70  45  40 NW16G25   30.16F
RANTOUL*       PTSUNNY   72  47  41 W13G22    30.15F
MATTOON        CLOUDY    71  49  45 NW14      30.18S
PARIS*         PTSUNNY   72  50  44 W18G28    30.16F
$$

ILZ079-100>102-261900-
SOUTHWEST ILLINOIS

CITY           SKY/WX    TMP DP  RH WIND       PRES   REMARKS
ALTON          PTSUNNY   72  52  49 NW9       30.20F
BELLEVILLE     MOSUNNY   78  48  33 N7        30.19F
CAHOKIA*       MOSUNNY   81  45  28 MISG      30.18F HX  80
SPARTA*        SUNNY     78  46  33 N3        30.20S
$$

ILZ064>066-069>071-074>076-080>082-084>086-088>090-092>094-261900-
SOUTH-CENTRAL ILLINOIS

CITY           SKY/WX    TMP DP  RH WIND       PRES   REMARKS
CARBONDALE     SUNNY     76  50  40 W8        30.18F
6HR MIN TEMP:  62; 6HR MAX TEMP:  77;

CAIRO*         SUNNY     75  49  39 N6        30.19F
EFFINGHAM*     PTSUNNY   76  48  37 W22       30.20S
MARION         MOSUNNY   77  46  33 W5        30.20F
MT. VERNON     SUNNY     77  49  37 VRB3      30.19F
CENTRALIA*     MOSUNNY   78  49  36 NW7       30.19S
SALEM*         PTSUNNY   76  48  36 NW8       30.19S
METROPOLIS*    SUNNY     75  49  39 CALM      30.20F
$$

ILZ067-068-072-073-078-083-087-091-261900-
SOUTHEAST ILLINOIS

CITY           SKY/WX    TMP DP  RH WIND       PRES   REMARKS
LAWRENCEVILLE  SUNNY     77  48  35 W9G22     30.18F
FLORA*         SUNNY     78  48  34 NW13G20   30.19R
FAIRFIELD*     SUNNY     77  47  34 NW3       30.18S
HARRISBURG*    SUNNY     76  49  37 N3        30.19F
ROBINSON*      SUNNY     75  48  39 N10       30.18F
CARMI*         SUNNY     76  51  40 NW6       30.18F
$$

ABBREVIATIONS USED IN REMARKS
   TC - TEMPERATURE IN CELSIUS
  WCI - WIND CHILL INDEX
   HX - HEAT INDEX
  VSB - VISIBILITY
$$





USA.gov is the U.S. government's official web portal to all federal, state and local government web resources and services.